Weather History for Nellis AFB, NV

Change the Weather History Date:

Wednesday, December 5, 2012

  Actual Average Record
Temperature  
Mean Temperature 54 °F -  
Max Temperature 62 °F 58 °F 66 °F (2000)
Min Temperature 46 °F 36 °F 26 °F (2006)
Degree Days  
Heating Degree Days 11    
Growing Degree Days 4 (Base 50)    
Moisture  
Dew Point 41 °F    
Average Humidity 63    
Maximum Humidity 73    
Minimum Humidity 48    
Precipitation  
Precipitation 0.00 in - - ()
Sea Level Pressure  
Sea Level Pressure 30.07 in    
Wind  
Wind Speed 2 mph (NE)    
Max Wind Speed 5 mph    
Max Gust Speed -    
Visibility 10 miles    
Events      
Averages and records for this station are not official NWS values.
T = Trace of Precipitation, MM = Missing Value Source: NWS Daily Summary

Daily Weather History Graph

Daily Weather History Graph

Search for Another Location

Airport:

Trip Planner

Search our weather history database for the weather conditions in past years. The results will help you decide how hot, cold, wet, or windy it might be!

Date:

Astronomy

Dec. 05, 2012 Rise Set
Actual Time 6:36 AM PST 4:25 PM PST
Civil Twilight 6:08 AM PST 4:53 PM PST
Nautical Twilight 5:36 AM PST 5:25 PM PST
Astronomical Twilight 5:05 AM PST 5:56 PM PST
Moon 11:09 PM PST (12/5) 11:10 AM PST (12/5)
Length of Visible Light 10h 45m
Length of Day
9h 48m
Waning Gibbous, 58% of the Moon is Illuminated
Dec 5
Waning Gibbous
Dec 6
Last Quarter
Dec 13
New
Dec 19
First Quarter
Dec 28
Full

Hourly Weather History & Observations

Time (PST) Temp. Windchill Dew Point Humidity Pressure Visibility Wind Dir Wind Speed Gust Speed Precip Events Conditions
12:58 AM 51.4 °F - 40.1 °F 65% 30.17 in 10.0 mi Calm Calm - N/A   Partly Cloudy
1:58 AM 51.4 °F - 40.6 °F 67% 30.17 in 10.0 mi NNW 4.6 mph - N/A   Clear
2:58 AM 49.5 °F - 40.3 °F 71% 30.16 in 10.0 mi North 2.3 mph - N/A   Partly Cloudy
3:58 AM 48.9 °F - 39.6 °F 70% 30.11 in 10.0 mi North 3.5 mph - N/A   Partly Cloudy
4:58 AM 47.1 °F - 38.7 °F 72% 30.13 in 10.0 mi NNE 2.3 mph - N/A   Clear
6:58 AM 47.7 °F - 39.4 °F 73% 30.13 in 10.0 mi Calm Calm - N/A   Clear
7:58 AM 50.0 °F - 40.3 °F 69% 30.13 in 10.0 mi NW 2.3 mph - N/A   Clear
8:58 AM 50.0 °F - 40.5 °F 70% 30.14 in 10.0 mi Calm Calm - N/A   Clear
9:58 AM 53.1 °F - 41.4 °F 64% 30.13 in 10.0 mi SSE 3.5 mph - N/A   Clear
10:58 AM 56.1 °F - 42.3 °F 60% 30.11 in 10.0 mi SSE 2.3 mph - N/A   Clear
11:58 AM 59.2 °F - 42.1 °F 53% 30.08 in 10.0 mi NNW 1.2 mph - N/A   Clear
12:58 PM 60.8 °F - 42.6 °F 51% 30.05 in 10.0 mi South 3.5 mph - N/A   Clear
1:58 PM 62.1 °F - 43.0 °F 50% 30.03 in 10.0 mi SSE 3.5 mph - N/A   Clear
2:58 PM 62.6 °F - 42.8 °F 48% 30.01 in 10.0 mi South 3.5 mph - N/A   Clear
3:58 PM 62.1 °F - 43.0 °F 50% 30.01 in 10.0 mi SW 2.3 mph - N/A   Clear
4:58 PM 58.8 °F - 42.3 °F 54% 30.01 in 10.0 mi WNW 2.3 mph - N/A   Partly Cloudy
5:58 PM 55.2 °F - 41.0 °F 59% 30.02 in 10.0 mi Calm Calm - N/A   Mostly Cloudy
6:58 PM 53.1 °F - 40.1 °F 61% 30.02 in 10.0 mi Calm Calm - N/A   Scattered Clouds
7:58 PM 50.7 °F - 39.6 °F 66% 30.03 in 10.0 mi NNE 3.5 mph - N/A   Clear
8:58 PM 50.4 °F - 40.3 °F 68% 30.01 in 10.0 mi Calm Calm - N/A   Clear
9:58 PM 49.6 °F - 39.6 °F 68% 30.00 in 10.0 mi East 3.5 mph - N/A   Clear
10:58 PM 46.4 °F 44.3 °F 38.3 °F 73% 30.00 in 10.0 mi NNE 4.6 mph - N/A   Clear
11:58 PM 47.7 °F - 39.2 °F 72% 29.99 in 10.0 mi ESE 2.3 mph - N/A   Clear